STRAND-1

Last updated on Wed Sep 17 2025 00:03:09 GMT+0000 (Coordinated Universal Time)

1 39090U 13009E 25259.49007532 .00000303 00000+0 11692-3 0 9994 2 39090 98.3854 81.6140 0008199 336.5295 23.5517 14.36888833657755
UTC large
Height (km)
Speed (km/s)
/
Latitude / Longitude
Inclination (degrees)
Orbital Period (minutes)
Azimuth
Elevation
Range (km)
Doppler Factor

Next 0 passes for location: London (51.5072 / 0.1276)

Sorry there are no passes over London.